Regional Weather Roundup
Issued by NWS

Home | Current Version | Previous Version | Text Only | Print | Product List | Glossary Off
Versions: 1 2 3 4 5 6 7 8 9 10 11 12 13 14 15 16 17 18 19 20 21 22 23 24 25 26 27 28 29 30 31 32 33 34 35 36 37 38 39 40 41 42 43 44 45 46 47 48 49 50

000
ASUS45 KBOI 010910
RWRID
WEATHER ROUNDUP FOR IDAHO
NATIONAL WEATHER SERVICE BOISE ID
300 AM MDT WED OCT 01 2014

NOTE: "FAIR" INDICATES FEW OR NO CLOUDS BELOW 12000 FEET
WITH NO SIGNIFICANT WEATHER AND/OR OBSTRUCTIONS TO VISIBILITY

IDZ012-014-011000-
SOUTHWEST IDAHO


CITY           SKY/WX    TMP DP  RH WIND       PRES   REMARKS
BOISE          CLEAR     48  39  71 W10       30.06R
CALDWELL       CLEAR     46  34  61 NW3       30.09R
MOUNTAIN HOME  CLEAR     46  41  83 NW16      30.03S
$$

IDZ016-017-011000-
SOUTHCENTRAL IDAHO


CITY           SKY/WX    TMP DP  RH WIND       PRES   REMARKS
BURLEY         MOCLDY    43  35  73 W9        29.98R
JEROME         PTCLDY    41  35  79 SW8       30.00R
TWIN FALLS     CLEAR     45  34  65 SW14      30.01R
$$

IDZ019>023-011000-
SOUTHEAST IDAHO


CITY           SKY/WX    TMP DP  RH WIND       PRES   REMARKS
IDAHO FALLS    CLOUDY    42  39  89 W7        29.98R
POCATELLO      PTCLDY    42  36  79 SW8       29.99R
REXBURG        MOCLDY    41  39  93 SW5       29.97R
$$

IDZ006-010-011-018-031-032-011000-
CENTRAL IDAHO MOUNTAINS


CITY           SKY/WX    TMP DP  RH WIND       PRES   REMARKS
MCCALL         CLEAR     35  32  88 CALM      30.06R
HAILEY         CLOUDY    41  32  70 CALM      30.01R
STANLEY          N/A     33  29  85 CALM      30.07R
SALMON         CLOUDY    45  37  76 CALM      30.01S
CHALLIS        CLOUDY    41  34  76 CALM      30.03R
$$

IDZ002-004-006-007-026-011000-
NORTHERN IDAHO


CITY           SKY/WX    TMP DP  RH WIND       PRES   REMARKS
LEWISTON       CLOUDY    50  43  77 NE3       30.05R
LOWELL           N/A     47  46  97 N3        30.10R
COEUR D`ALENE  CLEAR     43  39  87 S8        30.02S
MULLAN PASS    CLEAR     33  32  96 NW7       30.01R WCI  27
$$


USA.gov is the U.S. government's official web portal to all federal, state and local government web resources and services.